TimeCST,TemperatureF,Dew PointF,Humidity,Sea Level PressureIn,VisibilityMPH,Wind Direction,Wind SpeedMPH,Gust SpeedMPH,PrecipitationIn,Events,Conditions,WindDirDegrees,DateUTC
12:15 AM,55.6,55.6,100,29.76,4.0,South,5.8,-,N/A,,Overcast,180,2013-12-04 06:15:00
12:35 AM,56.3,56.3,100,29.75,5.0,South,8.1,-,N/A,,Overcast,170,2013-12-04 06:35:00
12:55 AM,57.2,56.7,98,29.75,5.0,South,9.2,-,N/A,,Overcast,170,2013-12-04 06:55:00
1:15 AM,57.2,56.5,97,29.76,5.0,South,8.1,-,N/A,,Overcast,170,2013-12-04 07:15:00
1:35 AM,57.4,56.8,98,29.77,5.0,South,5.8,-,N/A,,Overcast,170,2013-12-04 07:35:00
1:55 AM,57.7,57.2,98,29.77,5.0,SSE,5.8,-,N/A,,Overcast,160,2013-12-04 07:55:00
2:15 AM,58.1,57.4,97,29.78,5.0,SSE,4.6,-,N/A,,Overcast,160,2013-12-04 08:15:00
2:35 AM,58.3,57.6,97,29.78,5.0,SSE,5.8,-,N/A,,Overcast,150,2013-12-04 08:35:00
2:55 AM,58.5,58.1,99,29.77,5.0,SSE,6.9,-,N/A,,Overcast,160,2013-12-04 08:55:00
3:15 AM,58.5,58.5,100,29.76,4.0,SSE,4.6,-,N/A,,Overcast,150,2013-12-04 09:15:00
3:35 AM,58.5,58.5,100,29.75,3.0,SSE,4.6,-,N/A,,Overcast,150,2013-12-04 09:35:00
3:55 AM,58.5,58.5,100,29.75,3.0,SSE,4.6,-,N/A,,Overcast,150,2013-12-04 09:55:00
4:15 AM,59.0,59.0,100,29.75,3.0,SSE,4.6,-,N/A,,Overcast,160,2013-12-04 10:15:00
4:35 AM,59.2,59.2,100,29.75,3.0,SSE,4.6,-,N/A,,Overcast,150,2013-12-04 10:35:00
4:55 AM,59.0,59.0,100,29.75,2.5,SSE,4.6,-,N/A,,Overcast,160,2013-12-04 10:55:00
5:15 AM,59.0,59.0,100,29.75,1.8,SSE,4.6,-,N/A,,Overcast,150,2013-12-04 11:15:00
5:35 AM,59.2,59.2,100,29.75,2.0,SSE,6.9,-,N/A,,Overcast,150,2013-12-04 11:35:00
5:55 AM,59.5,59.5,100,29.76,2.5,SSE,5.8,-,N/A,,Overcast,160,2013-12-04 11:55:00
6:15 AM,59.9,59.9,100,29.76,4.0,SSE,5.8,-,N/A,,Overcast,160,2013-12-04 12:15:00
6:35 AM,60.3,60.3,100,29.76,4.0,SSE,6.9,-,N/A,,Overcast,160,2013-12-04 12:35:00
6:55 AM,60.8,60.8,100,29.76,4.0,South,6.9,-,N/A,,Overcast,170,2013-12-04 12:55:00
7:15 AM,61.0,61.0,100,29.77,4.0,South,8.1,-,N/A,,Overcast,180,2013-12-04 13:15:00
7:35 AM,61.2,61.2,100,29.76,4.0,SSE,8.1,-,N/A,,Overcast,160,2013-12-04 13:35:00
7:55 AM,61.7,61.3,99,29.76,4.0,South,6.9,-,N/A,,Overcast,170,2013-12-04 13:55:00
8:15 AM,62.2,61.9,99,29.77,4.0,South,6.9,-,N/A,,Overcast,190,2013-12-04 14:15:00
8:35 AM,62.8,62.1,97,29.76,5.0,South,9.2,-,N/A,,Overcast,180,2013-12-04 14:35:00
8:55 AM,63.7,62.6,96,29.76,7.0,South,6.9,-,N/A,,Overcast,180,2013-12-04 14:55:00
9:15 AM,65.3,63.0,92,29.76,10.0,SSW,9.2,-,N/A,,Overcast,200,2013-12-04 15:15:00
9:35 AM,66.2,63.0,89,29.77,10.0,SSW,11.5,-,N/A,,Mostly Cloudy,200,2013-12-04 15:35:00
9:55 AM,67.1,63.1,87,29.77,10.0,SSW,15.0,-,N/A,,Mostly Cloudy,200,2013-12-04 15:55:00
10:15 AM,68.0,63.0,84,29.77,10.0,SSW,16.1,20.7,N/A,,Overcast,200,2013-12-04 16:15:00
10:35 AM,68.4,62.8,82,29.76,10.0,SSW,11.5,17.3,N/A,,Overcast,200,2013-12-04 16:35:00
10:55 AM,69.8,62.8,78,29.75,10.0,SSW,12.7,23.0,N/A,,Mostly Cloudy,200,2013-12-04 16:55:00
11:15 AM,71.1,60.8,70,29.74,10.0,SSW,16.1,24.2,N/A,,Overcast,210,2013-12-04 17:15:00
11:35 AM,71.6,60.1,67,29.73,10.0,SSW,17.3,25.3,N/A,,Overcast,210,2013-12-04 17:35:00
11:55 AM,71.2,59.2,66,29.72,10.0,SW,16.1,21.9,N/A,,Mostly Cloudy,220,2013-12-04 17:55:00
12:15 PM,71.1,59.0,66,29.72,10.0,SSW,15.0,20.7,N/A,,Mostly Cloudy,210,2013-12-04 18:15:00
12:35 PM,71.8,59.4,65,29.71,10.0,SSW,12.7,20.7,N/A,,Mostly Cloudy,210,2013-12-04 18:35:00
12:55 PM,72.5,59.0,62,29.70,10.0,SSW,15.0,23.0,N/A,,Mostly Cloudy,210,2013-12-04 18:55:00
1:15 PM,73.4,58.3,59,29.69,10.0,SSW,19.6,26.5,N/A,,Mostly Cloudy,200,2013-12-04 19:15:00
1:35 PM,73.4,58.3,59,29.69,10.0,SSW,13.8,-,N/A,,Scattered Clouds,210,2013-12-04 19:35:00
1:55 PM,73.2,58.3,59,29.68,10.0,South,15.0,21.9,N/A,,Clear,190,2013-12-04 19:55:00
2:15 PM,73.4,58.6,60,29.68,10.0,SSW,10.4,18.4,N/A,,Clear,200,2013-12-04 20:15:00
2:35 PM,73.6,58.8,60,29.68,10.0,SSW,12.7,20.7,N/A,,Clear,200,2013-12-04 20:35:00
2:55 PM,73.8,57.9,58,29.68,10.0,South,10.4,24.2,N/A,,Clear,190,2013-12-04 20:55:00
3:15 PM,73.8,57.6,57,29.68,10.0,SSW,13.8,17.3,N/A,,Clear,210,2013-12-04 21:15:00
3:35 PM,73.4,57.2,57,29.68,10.0,SSW,11.5,-,N/A,,Clear,200,2013-12-04 21:35:00
3:55 PM,73.2,57.2,57,29.68,10.0,SSW,15.0,20.7,N/A,,Clear,210,2013-12-04 21:55:00
4:15 PM,72.7,57.2,58,29.69,10.0,SSW,13.8,17.3,N/A,,Clear,210,2013-12-04 22:15:00
4:35 PM,72.7,57.2,58,29.69,10.0,SSW,13.8,20.7,N/A,,Clear,210,2013-12-04 22:35:00
4:55 PM,72.5,57.2,59,29.70,10.0,SSW,11.5,17.3,N/A,,Clear,200,2013-12-04 22:55:00
5:15 PM,72.3,57.2,59,29.70,10.0,SSW,11.5,18.4,N/A,,Clear,200,2013-12-04 23:15:00
5:35 PM,71.6,57.6,61,29.70,10.0,SSW,12.7,-,N/A,,Clear,200,2013-12-04 23:35:00
5:55 PM,71.6,57.7,62,29.70,10.0,South,17.3,21.9,N/A,,Clear,190,2013-12-04 23:55:00
6:15 PM,71.6,58.1,62,29.70,10.0,SSW,17.3,21.9,N/A,,Clear,200,2013-12-05 00:15:00
6:35 PM,71.1,58.5,64,29.71,10.0,SSW,17.3,24.2,N/A,,Clear,200,2013-12-05 00:35:00
6:55 PM,71.1,58.6,65,29.72,10.0,SSW,13.8,23.0,N/A,,Clear,210,2013-12-05 00:55:00
7:15 PM,70.9,59.0,66,29.73,10.0,SSW,13.8,23.0,N/A,,Clear,210,2013-12-05 01:15:00
7:35 PM,70.7,59.2,67,29.75,10.0,SW,11.5,19.6,N/A,,Clear,220,2013-12-05 01:35:00
7:55 PM,70.3,59.5,69,29.77,10.0,SW,11.5,-,N/A,,Mostly Cloudy,230,2013-12-05 01:55:00
8:15 PM,70.7,60.1,69,29.78,10.0,SSW,10.4,-,N/A,,Overcast,210,2013-12-05 02:15:00
8:35 PM,70.2,60.3,71,29.78,10.0,SSW,8.1,-,N/A,,Overcast,210,2013-12-05 02:35:00
8:55 PM,70.0,60.6,72,29.78,10.0,SSW,10.4,-,N/A,,Overcast,200,2013-12-05 02:55:00
9:15 PM,69.6,60.8,73,29.78,10.0,SSW,9.2,-,N/A,,Mostly Cloudy,200,2013-12-05 03:15:00
9:35 PM,69.3,61.0,75,29.79,10.0,SSW,9.2,-,N/A,,Scattered Clouds,210,2013-12-05 03:35:00
9:55 PM,69.4,61.3,75,29.80,10.0,SSW,10.4,-,N/A,,Scattered Clouds,210,2013-12-05 03:55:00
10:15 PM,69.1,61.3,76,29.79,10.0,SSW,9.2,-,N/A,,Scattered Clouds,200,2013-12-05 04:15:00
10:35 PM,69.8,61.9,76,29.80,10.0,SW,11.5,-,N/A,,Scattered Clouds,220,2013-12-05 04:35:00
10:55 PM,70.2,62.1,75,29.81,10.0,SW,11.5,-,N/A,,Mostly Cloudy,220,2013-12-05 04:55:00
11:15 PM,69.8,62.4,77,29.81,10.0,SW,10.4,-,N/A,,Overcast,220,2013-12-05 05:15:00
11:35 PM,70.7,62.6,75,29.81,10.0,SW,12.7,18.4,N/A,,Overcast,220,2013-12-05 05:35:00
11:55 PM,70.7,62.6,75,29.80,10.0,SSW,11.5,-,N/A,,Overcast,200,2013-12-05 05:55:00